Flag for U.S.A. Weather past 2 weeks in Atascadero, California, U.S.A.

Now
71 °F

Sunny.


Feels Like: 76 °F
Forecast: 56 / 76 °F
Wind: 9 mph from Southwest

Location: Paso Robles Municipal Airport

Current Time: Sep 1, 2015 at 11:34:44 AM

Latest Report: Sep 1, 2015 at 10:53 AM


Visibility: 10 mi

Pressure: 29.90 "Hg

Humidity: 59%

Dew point: 56 °F

Location of AtascaderoLocation

Historic Weather in Atascadero — Graph

°F

Atascadero temperature yesterday

Maximum temperature yesterday: 92 °F (at 3:53 PM)
Minimum temperature yesterday: 54 °F (at 6:53 AM)
Average temperature yesterday: 71 °F

Past Weeks' High & Low Weather Summary

 TemperatureHumidityPressure
High104 °F (Aug 27, 3:53 PM)93% (Aug 18, 4:53 AM)30.04 "Hg (Aug 18, 4:53 AM)
Low52 °F (Sep 1, 5:53 AM)11% (Aug 27, 3:53 PM)29.80 "Hg (Aug 20, 5:53 PM)
Average73 °F53%29.91 "Hg
* Reported Aug 17 9:53 AM — Sep 1 9:53 AM, Atascadero, Weather by CustomWeather, © 2015

Note: Actual official high and low records may vary slightly from our data, if they occured in-between our weather recording intervals... More about our weather records

Advertising

Atascadero weather history for previous 24 hours

 ConditionsComfort  
Time TempWeatherWind HumidityBarometerVisibility
9:53 AM
Tue, Sep 1
67 °FSunny.9 mph66%29.91 "Hg10 mi
8:53 AM63 °FSunny.5 mph73%29.91 "Hg10 mi
7:53 AM58 °FSunny.6 mph84%29.92 "Hg10 mi
6:53 AM52 °FClear.6 mph80%29.90 "Hg10 mi
5:53 AM52 °FClear.5 mph80%29.88 "Hg10 mi
4:53 AM53 °FClear.No wind80%29.88 "Hg10 mi
3:53 AM54 °FClear.5 mph80%29.87 "Hg10 mi
2:53 AM56 °FClear.N/A77%29.87 "Hg10 mi
1:53 AM59 °FClear.No wind75%29.88 "Hg10 mi
12:53 AM61 °FClear.5 mph72%29.88 "Hg10 mi
11:53 PM
Mon, Aug 31
64 °FClear.7 mph65%29.88 "Hg10 mi
10:53 PM66 °FClear.8 mph61%29.87 "Hg10 mi
9:53 PM68 °FClear.15 mph57%29.88 "Hg10 mi
7:53 PM72 °FSunny.13 mph49%29.83 "Hg10 mi
6:53 PM78 °FSunny.13 mph40%29.81 "Hg10 mi
5:53 PM86 °FSunny.13 mph29%29.80 "Hg10 mi
4:53 PM91 °FSunny.12 mph21%29.81 "Hg10 mi
3:53 PM92 °FSunny.3 mph13%29.81 "Hg10 mi
2:53 PM91 °FSunny.3 mph16%29.84 "Hg10 mi
1:53 PM87 °FSunny.6 mph18%29.86 "Hg10 mi
12:53 PM84 °FSunny.3 mph27%29.89 "Hg10 mi
11:53 AM80 °FSunny.No wind34%29.91 "Hg10 mi
Weather by CustomWeather, © 2015

See weather overviewHow to use our weather pages